Theta_e
317 317 317 317 314 317 318 319 319 317 317 320 319 318 319 334 340 340 337 334 328 328 326 325 326 326 325 325 325 326 325 325 326 331 330 328 325 322 320 317 313 312 310 308
317 318 317 317 316 317 318 319 319 318 319 319 318 319 318 332 340 341 338 335 331 323 322 322 323 324 324 325 324 325 327 328 332 333 330 327 323 318 315 312 310 308 306 306
318 319 319 320 321 321 319 320 321 320 320 318 318 319 317 321 326 329 328 328 328 323 321 322 324 326 327 327 327 327 326 326 325 324 322 319 316 316 313 311 306 305 305 305
318 318 320 321 321 320 322 319 320 322 320 321 318 320 318 317 323 323 321 323 325 323 320 323 329 325 322 319 320 318 317 317 317 318 319 316 313 310 307 305 305 305 305 305
319 320 320 321 321 320 320 319 320 321 319 320 319 319 318 315 318 316 333 335 333 326 321 329 324 319 315 314 314 314 314 313 313 313 311 310 307 305 305 305 305 305 305 305
318 318 320 320 320 319 320 319 316 315 316 319 318 319 318 323 323 322 335 331 330 328 325 320 316 313 311 312 313 313 313 311 311 310 307 305 305 304 305 304 304 305 305 305
319 319 319 320 320 318 317 317 319 320 319 321 318 320 319 326 329 336 335 333 330 326 320 316 313 311 311 311 312 313 312 310 309 306 305 304 304 304 304 304 304 304 304 304
319 321 318 318 318 319 318 317 321 322 321 319 318 323 326 327 331 329 331 329 323 319 316 314 312 310 309 308 308 309 309 305 304 304 304 304 304 304 304 304 304 303 303 303
318 320 319 319 319 319 320 319 317 318 317 319 318 326 326 327 330 329 326 325 320 316 312 310 309 308 308 307 306 306 305 304 304 304 304 303 303 303 303 303 303 303 303 302
318 321 320 320 317 316 319 317 321 318 322 323 319 324 328 330 328 329 325 320 317 313 311 309 307 306 306 305 305 305 304 304 304 303 303 303 304 304 304 304 304 303 303 303
316 318 320 321 321 318 317 318 317 318 320 322 322 321 324 327 327 329 324 319 315 312 311 309 307 306 305 304 303 303 303 303 303 303 303 303 303 304 304 304 303 303 302 302
316 316 319 320 320 323 321 322 317 319 324 321 322 322 325 326 327 326 323 319 313 311 310 309 308 307 305 303 302 302 302 302 302 303 303 303 303 303 303 302 303 302 300 300
318 318 320 320 322 322 326 326 321 318 320 326 325 325 324 326 328 325 321 317 314 311 309 308 307 307 304 303 302 302 303 303 303 303 303 303 303 302 302 301 301 301 301 298
323 318 320 323 322 323 327 327 323 322 324 324 325 325 328 327 328 327 322 317 314 311 310 309 307 305 304 303 302 302 302 303 303 303 303 303 303 302 301 299 297 297 298 299
316 324 325 326 326 325 326 328 326 326 322 326 324 325 322 327 326 329 322 317 315 313 312 310 307 304 303 302 302 302 303 303 303 303 303 303 303 302 300 298 297 298 299 301
316 324 324 327 326 325 326 326 326 326 323 323 323 323 319 321 324 325 322 319 316 314 312 309 306 304 303 302 302 302 303 303 303 302 302 303 303 303 302 298 298 297 300 301
321 323 321 326 327 323 324 322 325 323 323 323 326 322 323 326 327 327 323 320 317 315 312 308 306 304 303 302 303 303 303 302 301 302 302 302 303 303 302 299 299 299 299 300
322 321 319 326 322 326 320 321 322 323 325 325 324 327 325 324 319 318 321 319 318 313 310 308 305 304 303 302 303 303 302 302 302 303 302 302 302 302 302 298 299 299 298 298
318 320 323 326 323 323 324 323 324 324 323 324 326 328 323 319 320 320 313 315 312 310 308 306 304 303 304 303 303 303 302 301 302 302 302 302 300 301 302 298 299 298 298 298
320 318 323 321 327 328 323 321 320 320 323 323 324 326 322 321 327 322 311 309 307 307 306 304 303 303 304 304 303 302 301 302 302 301 301 301 301 300 302 298 298 298 298 298
321 320 324 320 324 322 319 322 320 325 319 322 323 323 321 323 319 310 307 306 306 305 304 304 304 304 304 304 303 301 301 302 302 301 300 300 300 301 301 299 298 298 298 298
320 322 322 320 323 327 320 324 324 321 323 323 322 321 320 311 309 308 306 306 305 306 305 304 304 304 304 303 302 301 302 302 301 301 300 300 299 300 300 300 298 298 298 298
319 317 320 320 320 316 321 323 321 321 324 323 322 318 312 310 309 307 306 305 305 305 305 304 304 304 303 303 303 302 302 301 299 300 299 300 299 298 298 298 298 297 298 298
322 320 321 321 322 323 325 324 323 322 321 319 316 313 312 310 308 307 306 306 306 306 305 304 303 303 304 303 303 302 302 303 300 299 298 298 298 297 297 297 298 298 297 297
318 321 320 320 322 325 325 323 322 319 317 316 314 313 310 309 309 308 306 306 307 306 305 304 304 304 304 304 303 302 303 303 303 301 299 298 298 296 296 296 297 298 298 297
316 320 321 322 319 321 322 322 320 319 318 315 313 312 310 310 309 307 307 307 307 305 305 304 304 304 304 304 303 303 303 303 302 302 300 298 298 297 295 296 298 297 299 298
Wind_Speed
3 4 3 6 5 3 2 3 3 5 5 4 3 5 8 7 8 9 8 9 10 15 8 13 19 20 20 20 23 23 23 19 18 19 19 14 11 6 6 8 11 15 19 22
5 3 7 3 4 4 3 1 5 5 3 1 4 7 5 6 17 18 13 9 9 4 5 11 17 15 15 16 16 16 17 16 14 13 10 7 8 4 6 11 15 18 21 21
6 4 6 4 2 3 4 4 4 6 4 4 5 7 7 2 3 3 0 3 6 11 5 7 14 16 18 18 18 19 19 17 15 13 11 10 6 5 9 16 20 21 20 20
5 4 5 3 4 6 3 6 5 3 2 1 2 4 4 5 2 5 6 9 10 9 5 7 14 18 22 25 26 26 24 22 18 14 12 12 11 9 12 15 17 18 19 21
7 4 3 2 3 4 7 1 4 3 3 4 5 4 6 6 7 10 12 14 14 11 5 12 19 26 27 28 30 27 25 23 19 18 17 13 10 8 10 13 16 19 22 23
7 2 2 4 1 5 4 5 8 5 3 3 4 4 5 4 6 2 4 9 11 15 18 20 24 28 31 30 28 24 21 19 16 15 14 10 9 10 11 14 17 21 23 23
3 4 3 3 4 2 5 6 2 3 4 5 2 3 5 5 4 4 8 10 11 13 14 15 17 21 23 26 24 20 15 13 14 11 11 9 11 11 11 13 17 18 20 23
6 6 6 4 8 6 4 7 6 5 4 4 3 3 4 2 5 8 9 9 11 12 13 13 15 15 15 15 18 17 17 10 10 10 11 8 10 11 12 13 12 13 16 21
5 5 4 5 4 6 3 3 3 8 4 3 2 2 5 4 5 6 7 9 9 10 8 10 15 18 21 19 17 18 13 10 11 10 8 9 8 11 11 11 12 13 16 19
7 1 2 3 4 4 3 4 4 3 5 4 4 2 4 4 5 6 6 7 9 8 7 8 11 15 16 14 13 14 15 13 12 8 6 7 9 9 11 12 14 15 17 20
5 4 5 1 1 6 2 0 6 6 4 6 3 5 6 7 7 9 8 8 9 8 7 7 8 9 10 10 9 8 11 17 11 7 6 6 7 9 12 14 16 17 18 19
8 6 4 6 3 2 2 5 5 5 4 2 3 5 3 6 4 8 10 10 7 8 7 6 9 10 7 7 7 9 14 12 9 8 6 6 8 12 14 16 16 17 19 19
8 1 2 6 5 1 5 2 4 6 3 5 5 5 3 3 4 8 10 9 9 8 7 6 9 7 7 6 7 9 10 8 6 8 6 8 12 15 15 18 21 20 19 20
8 3 6 9 6 3 4 3 3 5 4 5 5 3 5 7 7 8 8 8 8 9 8 5 6 6 6 5 5 6 7 7 8 8 9 10 13 13 17 21 23 20 18 16
4 4 4 4 3 4 4 3 2 2 5 5 3 7 6 12 14 13 8 8 10 10 8 6 5 5 5 3 3 7 7 7 8 8 9 11 11 13 18 22 23 18 17 16
3 1 2 4 3 6 4 1 4 4 5 3 4 6 4 4 7 7 10 12 12 11 10 8 8 9 6 5 1 3 7 7 8 8 9 11 12 13 17 21 23 17 18 12
3 6 2 3 1 4 3 5 5 1 2 5 2 6 3 3 5 7 9 12 12 12 11 9 9 10 11 8 7 2 5 8 7 6 9 12 13 14 12 18 19 16 16 13
6 4 3 3 3 1 5 3 1 4 2 3 4 4 3 2 2 4 3 9 10 12 10 8 12 11 10 7 4 2 5 5 7 8 11 12 13 12 9 13 16 17 17 17
3 5 3 5 4 4 1 4 6 6 6 6 5 2 2 3 2 3 3 4 7 8 13 16 16 15 11 7 2 4 4 6 7 10 13 13 12 11 8 9 12 15 17 19
5 6 5 2 4 6 8 3 4 4 4 7 6 6 6 5 2 4 4 6 10 17 20 21 18 14 12 8 2 2 5 6 9 12 13 12 12 11 9 8 8 11 15 15
3 3 5 3 3 6 7 5 3 4 7 6 6 6 8 5 2 4 7 7 15 18 21 21 17 13 8 8 4 3 4 7 10 10 12 12 12 11 10 8 7 7 10 14
6 6 3 3 3 5 6 4 8 6 0 5 5 5 5 7 8 8 8 8 15 17 16 16 14 10 9 6 2 2 4 9 10 10 12 13 13 11 11 9 9 7 7 9
2 5 4 7 6 4 4 3 1 4 5 4 4 3 7 10 5 10 9 8 12 15 15 16 15 11 8 5 2 2 7 10 10 10 13 14 12 12 11 11 10 9 8 8
1 2 3 2 2 3 3 1 3 3 4 5 4 7 8 8 12 11 9 9 12 16 17 17 15 12 8 5 2 2 6 9 12 10 14 14 13 13 11 12 12 11 10 9
3 3 3 2 3 2 1 3 3 4 7 10 7 5 8 13 11 11 8 11 12 12 13 15 13 10 7 5 1 3 8 9 12 11 12 13 15 15 13 12 12 13 10 9
3 5 4 4 3 2 2 2 1 5 5 7 8 6 8 8 11 12 10 12 14 15 15 13 9 7 6 4 1 4 6 9 12 11 13 14 15 14 13 14 16 14 9 8
Wind_Direction
18 66 215 237 188 154 138 148 229 246 248 222 229 257 254 211 204 202 206 207 217 224 223 207 210 207 205 204 208 207 198 185 184 168 151 145 129 100 43 10 351 343 339 337
19 242 224 187 172 188 203 258 276 287 317 160 9 301 298 212 214 202 204 226 242 279 178 154 174 186 185 174 189 188 184 174 175 170 148 137 129 86 19 358 346 343 341 342
166 230 111 167 199 194 211 191 234 209 331 37 7 325 346 347 63 78 146 250 237 228 183 153 146 144 137 128 129 128 120 115 111 113 111 99 79 13 345 340 343 352 351 354
222 245 206 162 237 169 295 211 206 231 104 190 47 274 328 352 266 233 4 341 316 299 167 137 110 89 96 101 114 109 103 95 84 74 65 56 46 18 352 346 348 358 6 3
240 176 142 184 163 145 242 62 145 76 81 62 345 73 270 4 25 9 4 351 352 321 110 83 90 90 84 95 100 94 90 81 69 56 42 24 26 19 357 354 0 6 8 8
215 264 231 212 178 187 146 65 44 52 70 39 270 123 302 2 290 311 29 25 43 67 80 84 87 93 97 102 95 88 80 72 59 39 29 17 26 25 15 11 10 10 10 2
327 249 239 179 311 62 79 64 354 3 19 216 318 62 246 305 343 42 41 52 67 82 89 91 93 97 104 107 107 100 75 72 50 44 45 21 32 29 22 15 11 5 359 358
174 316 176 174 186 184 170 153 152 189 180 245 78 215 256 7 106 81 77 84 87 93 100 105 103 94 84 87 96 96 95 79 62 60 57 37 35 29 18 12 3 355 354 1
139 264 279 211 147 130 170 170 173 101 10 74 240 315 308 122 92 91 101 107 98 99 95 100 108 117 122 117 113 99 97 83 69 51 60 52 37 28 8 355 350 350 359 355
205 351 243 280 98 43 143 156 81 23 132 191 293 244 232 199 154 145 141 141 141 134 122 116 118 125 124 119 111 116 113 94 79 70 61 41 16 359 342 338 339 346 344 340
132 123 271 335 119 178 142 169 59 110 115 150 171 259 212 195 176 183 181 177 162 147 142 145 134 108 110 103 91 96 97 92 93 83 46 18 345 345 338 340 344 343 337 338
195 155 193 224 290 246 144 147 128 118 212 73 147 267 196 187 126 169 186 176 161 156 147 123 124 135 114 88 101 103 85 90 85 72 28 346 347 355 347 349 345 341 341 338
177 205 101 351 354 25 97 93 118 110 97 184 127 260 331 186 182 183 179 175 167 150 140 145 142 119 113 114 101 94 93 80 65 51 17 5 4 358 352 350 343 339 329 332
87 99 165 209 197 147 140 140 150 119 116 164 213 244 247 234 214 190 189 177 167 157 157 135 111 132 125 103 113 115 89 65 44 30 15 9 8 357 356 355 348 343 338 335
93 111 112 79 75 97 111 131 187 97 142 138 222 208 246 215 208 206 171 149 158 162 158 138 151 139 109 110 152 109 73 42 27 21 3 4 5 1 5 354 356 346 350 347
34 145 118 58 38 109 114 133 192 193 154 248 153 251 243 339 124 163 177 166 171 170 153 157 147 142 137 136 54 59 62 18 6 357 347 345 349 357 5 354 358 357 3 15
87 136 96 184 314 176 16 234 182 150 146 126 170 242 332 296 235 200 180 176 175 162 156 156 161 156 147 156 144 50 20 3 353 359 331 330 341 4 351 2 2 13 14 3
123 95 79 128 39 85 254 343 7 138 134 204 236 240 235 238 95 20 151 175 160 157 152 144 133 143 141 133 112 8 8 354 359 349 334 343 355 358 348 357 8 16 9 2
56 120 88 132 172 283 194 196 146 169 243 195 215 172 103 118 91 323 349 119 143 139 127 138 150 143 138 137 103 37 340 330 345 344 348 353 357 347 346 334 357 11 12 16
53 67 108 124 138 199 235 242 157 120 288 189 179 183 168 170 162 252 130 110 111 123 138 140 143 147 143 140 96 11 298 325 345 350 347 343 339 345 325 312 342 6 15 21
62 31 136 120 186 288 250 219 143 117 237 171 173 183 170 192 173 119 111 93 123 133 137 145 149 152 170 129 99 277 310 341 348 343 341 341 343 338 310 298 314 345 13 29
154 136 169 96 93 262 177 89 162 207 44 162 172 173 153 109 108 111 111 116 125 127 134 146 155 172 150 123 160 279 351 347 346 338 341 352 351 333 319 299 298 303 334 5
152 173 178 170 209 246 275 246 116 152 144 171 150 124 125 128 129 132 133 132 134 141 151 163 153 151 145 155 184 25 14 360 345 345 350 350 346 340 332 321 312 291 298 327
100 122 147 93 266 275 307 58 73 52 101 112 96 130 134 130 141 140 140 146 154 156 160 162 161 157 156 186 210 6 6 353 3 0 353 353 342 339 336 340 330 310 290 295
189 119 144 263 283 292 310 27 119 89 91 98 95 117 135 140 148 149 150 163 164 159 162 170 171 168 176 193 246 12 1 5 358 349 352 349 346 342 339 334 335 330 307 289
188 168 155 216 225 165 281 330 89 122 125 132 126 119 135 141 147 146 152 156 156 167 176 184 181 179 197 199 296 12 5 11 351 334 339 342 340 340 349 353 346 339 330 307